EW4847 Weather Reports


time (UTC)temp
C
wind
direction
speed
KPH
gust
KPH
rain 1hr
cm
rain 24hr
cm
rain mn
cm
humidity
%
barometer
mb
20260510184601 23 360 4.8 12.9 0.00 0.00 0.00 50 1016.7
20260510183057 22 360 8.0 17.7 0.00 0.00 0.00 50 1016.6
20260510181556 23 5 4.8 16.1 0.00 0.00 0.00 53 1016.5
20260510180057 23 360 3.2 9.7 0.00 0.00 0.00 55 1016.4
20260510174559 23 59 4.8 16.1 0.00 0.00 0.00 54 1016.4
20260510173053 23 45 4.8 16.1 0.00 0.00 0.00 55 1016.4
20260510171603 22 17 6.4 20.9 0.00 0.00 0.00 53 1016.4
20260510170049 22 21 9.7 17.7 0.00 0.00 0.00 54 1016.5
20260510164547 22 5 8.0 16.1 0.00 0.00 0.00 56 1016.4
20260510163040 22 48 11.3 17.7 0.00 0.00 0.00 59 1016.6
20260510161534 21 355 8.0 14.5 0.00 0.00 0.00 61 1016.6
20260510160032 21 15 4.8 16.1 0.00 0.00 0.00 64 1016.7
20260510154534 21 32 1.6 16.1 0.00 0.00 0.00 65 1016.5
20260510153027 21 360 4.8 16.1 0.00 0.00 0.00 65 1016.4
20260510151524 21 11 3.2 17.7 0.00 0.00 0.00 66 1016.1
20260510150021 21 38 4.8 14.5 0.00 0.00 0.00 67 1015.8
20260510144519 20 46 3.2 12.9 0.00 0.00 0.00 69 1015.6
20260510143014 20 34 3.2 16.1 0.00 0.00 0.00 69 1015.5
20260510141506 20 51 3.2 17.7 0.00 0.00 0.00 70 1015.3
20260510140002 19 13 0.0 12.9 0.00 0.00 0.00 72 1015.1
20260510134621 18 23 3.2 17.7 0.00 0.00 0.00 71 1015.0
20260510133053 17 38 0.0 6.4 0.00 0.00 0.00 76 1014.9
20260510131548 16 46 0.0 0.0 0.00 0.00 0.00 82 1015.0
20260510130045 15 46 0.0 0.0 0.00 0.00 0.00 83 1015.0
20260510124552 15 46 0.0 6.4 0.00 0.00 0.00 83 1014.8
20260510123039 13 254 0.0 0.0 0.00 0.00 0.00 82 1014.4
20260510121536 13 254 0.0 0.0 0.00 0.00 0.00 82 1014.2
20260510120040 13 254 0.0 1.6 0.00 0.00 0.00 82 1014.3
20260510114536 13 254 0.0 0.0 0.00 0.00 0.00 82 1014.2
20260510113136 12 254 0.0 0.0 0.00 0.00 0.00 83 1014.0
20260510111533 12 254 0.0 3.2 0.00 0.00 0.00 83 1013.8
20260510110031 12 254 0.0 0.0 0.00 0.00 0.00 84 1013.5
20260510104526 12 254 0.0 0.0 0.00 0.00 0.00 83 1013.1
20260510103026 12 254 0.0 0.0 0.00 0.00 0.00 83 1012.9
20260510101523 13 254 0.0 0.0 0.00 0.00 0.00 83 1012.8
20260510100022 13 254 0.0 0.0 0.00 0.00 0.00 83 1012.6
20260510094529 13 254 0.0 0.0 0.00 0.00 0.00 82 1012.6
20260510093021 13 254 0.0 3.2 0.00 0.00 0.00 83 1012.8
20260510091522 13 254 1.6 3.2 0.00 0.00 0.00 82 1012.8
20260510090018 12 254 0.0 3.2 0.00 0.00 0.00 80 1012.5
20260510084517 12 257 1.6 3.2 0.00 0.00 0.00 80 1012.4
20260510083013 12 257 0.0 0.0 0.00 0.00 0.00 81 1012.0
20260510081511 12 257 0.0 0.0 0.00 0.00 0.00 81 1011.8
20260510080009 12 257 0.0 0.0 0.00 0.00 0.00 82 1011.7
20260510074508 12 257 0.0 0.0 0.00 0.00 0.00 82 1011.5
20260510073005 12 257 0.0 0.0 0.00 0.00 0.00 83 1011.5
20260510071502 12 257 0.0 0.0 0.00 0.00 0.00 83 1011.4
20260510070001 12 257 0.0 0.0 0.00 0.00 0.00 83 1011.5
20260510064601 12 257 0.0 0.0 0.00 0.00 0.00 83 1011.6
20260510063105 13 257 0.0 0.0 0.00 0.00 0.00 83 1011.6
20260510061555 13 257 0.0 0.0 0.00 0.00 0.00 83 1011.7
20260510060058 13 257 0.0 0.0 0.00 0.00 0.00 83 1012.0
20260510054550 13 257 0.0 0.0 0.00 0.00 0.00 83 1011.7
20260510053047 13 257 0.0 0.0 0.00 0.00 0.00 83 1011.4
20260510051607 13 257 0.0 0.0 0.00 0.00 0.00 82 1011.3
20260510050041 14 257 0.0 0.0 0.00 0.00 0.00 82 1011.2
20260510044542 14 257 0.0 0.0 0.00 0.00 0.00 81 1011.1
20260510043057 15 257 0.0 0.0 0.00 0.00 0.00 80 1011.1
20260510041537 15 257 0.0 0.0 0.00 0.00 0.00 80 1010.9
20260510040036 15 257 0.0 0.0 0.00 0.00 0.00 79 1010.8
20260510034537 16 257 0.0 0.0 0.00 0.00 0.00 78 1010.7
20260510033039 16 257 0.0 0.0 0.00 0.00 0.00 76 1010.7
20260510031555 16 257 0.0 0.0 0.00 0.00 0.00 74 1010.6
20260510030032 17 257 0.0 0.0 0.00 0.00 0.00 73 1010.5
20260510024536 17 257 0.0 0.0 0.00 0.00 0.00 72 1010.5
20260510023042 18 257 0.0 0.0 0.00 0.00 0.00 67 1010.3
20260510021530 18 257 0.0 0.0 0.00 0.00 0.00 65 1010.1
20260510020029 20 257 0.0 0.0 0.00 0.00 0.00 62 1009.9
20260510014528 20 257 0.0 0.0 0.00 0.00 0.00 59 1009.7
20260510013027 21 257 0.0 0.0 0.00 0.00 0.00 54 1009.5
20260510011527 22 257 0.0 0.0 0.00 0.00 0.00 51 1009.4
20260510010029 23 257 0.0 1.6 0.00 0.00 0.00 48 1009.1
20260510004526 24 257 0.0 1.6 0.00 0.00 0.00 44 1008.8
20260510003026 25 267 0.0 3.2 0.00 0.00 0.00 43 1008.7
20260510001525 26 140 0.0 4.8 0.00 0.00 0.00 41 1008.7
20260510000026 27 250 1.6 6.4 0.00 0.00 0.00 40 1008.7
20260509234524 28 169 1.6 9.7 0.00 0.00 0.00 37 1008.6
20260509233028 28 182 0.0 4.8 0.00 0.00 0.00 38 1008.5
20260509231522 28 259 0.0 6.4 0.00 0.00 0.00 36 1008.3
20260509230022 28 223 1.6 6.4 0.00 0.00 0.00 36 1008.4
20260509224521 28 262 0.0 6.4 0.00 0.00 0.00 37 1008.3
20260509223025 28 281 6.4 14.5 0.00 0.00 0.00 36 1008.2
20260509221525 28 171 3.2 12.9 0.00 0.00 0.00 38 1008.2
20260509220020 28 268 1.6 4.8 0.00 0.00 0.00 38 1008.3
20260509214520 27 282 3.2 12.9 0.00 0.00 0.00 38 1008.4
20260509213019 28 296 3.2 9.7 0.00 0.00 0.00 38 1008.3
20260509211536 27 263 3.2 11.3 0.00 0.00 0.00 39 1008.4
20260509210017 28 280 4.8 11.3 0.00 0.00 0.00 38 1008.5
20260509204515 28 270 3.2 12.9 0.00 0.00 0.00 41 1008.6
20260509203032 28 198 1.6 9.7 0.00 0.00 0.00 41 1008.6
20260509201512 28 219 3.2 9.7 0.00 0.00 0.00 42 1008.8
20260509200011 28 294 1.6 9.7 0.00 0.00 0.00 44 1009.1
20260509194508 28 196 3.2 11.3 0.00 0.00 0.00 44 1009.2
20260509193005 28 155 1.6 11.3 0.00 0.00 0.00 45 1009.3
20260509191502 27 144 1.6 11.3 0.00 0.00 0.00 49 1009.6